Change the Weather History Date:

Saturday, April 20, 2013

  Actual Average Record
Temperature  
Mean Temperature 32 °F -  
Max Temperature 42 °F 62 °F 89 °F (1987)
Min Temperature 22 °F 39 °F 19 °F (1988)
Degree Days  
Heating Degree Days 34    
Moisture  
Dew Point 22 °F    
Average Humidity 65    
Maximum Humidity 85    
Minimum Humidity 42    
Precipitation  
Precipitation 0.00 in - - ()
Sea Level Pressure  
Sea Level Pressure 30.19 in    
Wind  
Wind Speed 5 mph (East)    
Max Wind Speed 10 mph    
Max Gust Speed -    
Visibility 10 miles    
Events      
Averages and records for this station are not official NWS values.
T = Trace of Precipitation, MM = Missing Value Source: NWS Daily Summary

Daily Weather History Graph

Daily Weather History Graph

Search for Another Location

Airport or City:

Trip Planner

Search our weather history database for the weather conditions in past years. The results will help you decide how hot, cold, wet, or windy it might be!

Date:

Astronomy

Apr. 20, 2013 Rise Set
Actual Time 6:32 AM CDT 8:10 PM CDT
Civil Twilight 6:02 AM CDT 8:40 PM CDT
Nautical Twilight 5:26 AM CDT 9:16 PM CDT
Astronomical Twilight 4:47 AM CDT 9:55 PM CDT
Moon 2:48 PM CDT (4/20) 3:29 AM CDT (4/20)
Length of Visible Light 14h 37m
Length of Day
13h 38m
Waxing Gibbous, 71% of the Moon is Illuminated
Apr 20
Waxing Gibbous
Apr 25
Full
May 2
Last Quarter
May 9
New
May 17
First Quarter

Hourly Weather History & Observations

Time (CDT) Temp. Windchill Dew Point Humidity Pressure Visibility Wind Dir Wind Speed Gust Speed Precip Events Conditions
12:15 AM 28.6 °F 21.5 °F 22.5 °F 78% 30.09 in 10.0 mi NNW 6.9 mph - N/A   Clear
12:35 AM 28.4 °F 22.2 °F 21.7 °F 76% 30.10 in 10.0 mi NNW 5.8 mph - N/A   Clear
12:55 AM 27.5 °F 22.2 °F 22.3 °F 81% 30.11 in 10.0 mi NW 4.6 mph - N/A   Clear
1:35 AM 27.5 °F 20.2 °F 20.8 °F 76% 30.11 in 10.0 mi NNW 6.9 mph - N/A   Clear
1:55 AM 27.1 °F 19.7 °F 20.5 °F 76% 30.12 in 10.0 mi NNW 6.9 mph - N/A   Clear
2:15 AM 26.6 °F 21.2 °F 20.8 °F 79% 30.12 in 10.0 mi NW 4.6 mph - N/A   Clear
2:35 AM 26.4 °F 18.9 °F 21.0 °F 80% 30.12 in 10.0 mi NNW 6.9 mph - N/A   Clear
2:55 AM 26.2 °F 17.8 °F 20.3 °F 78% 30.11 in 10.0 mi North 8.1 mph - N/A   Clear
3:15 AM 25.5 °F 17.8 °F 20.3 °F 81% 30.11 in 10.0 mi North 6.9 mph - N/A   Clear
3:35 AM 25.0 °F 18.1 °F 19.4 °F 79% 30.12 in 10.0 mi North 5.8 mph - N/A   Clear
3:55 AM 25.2 °F 20.9 °F 18.5 °F 76% 30.13 in 10.0 mi North 3.5 mph - N/A   Clear
4:15 AM 24.8 °F 20.5 °F 18.0 °F 75% 30.14 in 10.0 mi North 3.5 mph - N/A   Clear
4:35 AM 23.7 °F - 17.6 °F 77% 30.15 in 10.0 mi Calm Calm - N/A   Clear
4:55 AM 23.9 °F - 17.6 °F 77% 30.15 in 10.0 mi Calm Calm - N/A   Clear
5:15 AM 23.0 °F - 17.8 °F 80% 30.16 in 10.0 mi Calm Calm - N/A   Clear
5:35 AM 22.3 °F - 18.5 °F 85% 30.16 in 10.0 mi Calm Calm - N/A   Clear
5:55 AM 22.8 °F - 18.0 °F 82% 30.16 in 10.0 mi Calm Calm - N/A   Clear
6:15 AM 22.5 °F - 17.6 °F 82% 30.18 in 10.0 mi Calm Calm - N/A   Clear
6:35 AM 22.1 °F 17.4 °F 17.6 °F 83% 30.17 in 10.0 mi NNE 3.5 mph - N/A   Clear
6:55 AM 22.5 °F 17.8 °F 18.0 °F 83% 30.18 in 10.0 mi North 3.5 mph - N/A   Clear
7:15 AM 23.0 °F 18.4 °F 18.3 °F 82% 30.19 in 10.0 mi North 3.5 mph - N/A   Clear
7:35 AM 23.9 °F 19.5 °F 18.9 °F 81% 30.20 in 10.0 mi North 3.5 mph - N/A   Clear
7:55 AM 24.8 °F 16.9 °F 19.4 °F 80% 30.20 in 10.0 mi NNE 6.9 mph - N/A   Clear
8:15 AM 25.7 °F 16.4 °F 19.9 °F 79% 30.20 in 10.0 mi NNE 9.2 mph - N/A   Clear
8:35 AM 26.8 °F 21.4 °F 20.3 °F 77% 30.21 in 10.0 mi NNE 4.6 mph - N/A   Clear
8:55 AM 27.5 °F 22.2 °F 20.5 °F 75% 30.22 in 10.0 mi North 4.6 mph - N/A   Clear
9:15 AM 29.3 °F 25.6 °F 20.8 °F 71% 30.23 in 10.0 mi ENE 3.5 mph - N/A   Clear
9:35 AM 30.6 °F 25.8 °F 21.6 °F 69% 30.24 in 10.0 mi SE 4.6 mph - N/A   Clear
9:55 AM 31.1 °F 27.7 °F 22.5 °F 70% 30.25 in 10.0 mi East 3.5 mph - N/A   Clear
10:15 AM 32.0 °F - 22.6 °F 68% 30.24 in 10.0 mi Calm Calm - N/A   Clear
10:35 AM 32.0 °F 28.7 °F 22.3 °F 67% 30.25 in 10.0 mi ESE 3.5 mph - N/A   Clear
10:55 AM 33.3 °F 28.9 °F 21.9 °F 63% 30.25 in 10.0 mi SE 4.6 mph - N/A   Clear
11:15 AM 34.2 °F 29.0 °F 21.2 °F 59% 30.25 in 10.0 mi SE 5.8 mph - N/A   Clear
11:35 AM 35.1 °F 32.2 °F 19.6 °F 53% 30.26 in 10.0 mi SSE 3.5 mph - N/A   Clear
11:55 AM 35.4 °F 31.5 °F 18.5 °F 50% 30.25 in 10.0 mi ESE 4.6 mph - N/A   Clear
12:15 PM 36.0 °F 32.1 °F 19.2 °F 51% 30.25 in 10.0 mi ESE 4.6 mph - N/A   Scattered Clouds
12:35 PM 37.0 °F 32.4 °F 20.7 °F 52% 30.25 in 10.0 mi ESE 5.8 mph - N/A   Overcast
12:55 PM 37.8 °F 35.3 °F 20.7 °F 50% 30.24 in 10.0 mi SE 3.5 mph - N/A   Overcast
1:15 PM 39.7 °F 34.9 °F 22.3 °F 50% 30.23 in 10.0 mi SSE 6.9 mph - N/A   Overcast
1:35 PM 39.4 °F 35.2 °F 19.9 °F 46% 30.23 in 10.0 mi SE 5.8 mph - N/A   Overcast
1:55 PM 38.7 °F 34.3 °F 20.1 °F 47% 30.23 in 10.0 mi ESE 5.8 mph - N/A   Overcast
2:15 PM 38.8 °F 35.4 °F 20.8 °F 48% 30.23 in 10.0 mi ESE 4.6 mph - N/A   Overcast
2:35 PM 39.6 °F 36.3 °F 20.7 °F 47% 30.22 in 10.0 mi ESE 4.6 mph - N/A   Overcast
2:55 PM 40.6 °F 37.5 °F 20.7 °F 45% 30.22 in 10.0 mi ESE 4.6 mph - N/A   Overcast
3:15 PM 41.0 °F 39.0 °F 21.4 °F 46% 30.21 in 10.0 mi SE 3.5 mph - N/A   Overcast
3:35 PM 41.0 °F 37.1 °F 21.6 °F 46% 30.21 in 10.0 mi SSE 5.8 mph - N/A   Overcast
3:55 PM 41.0 °F 36.4 °F 21.4 °F 46% 30.20 in 10.0 mi SSE 6.9 mph - N/A   Overcast
4:15 PM 41.2 °F 36.0 °F 21.6 °F 46% 30.19 in 10.0 mi SE 8.1 mph - N/A   Overcast
4:35 PM 41.2 °F 35.0 °F 21.0 °F 45% 30.18 in 10.0 mi SE 10.4 mph - N/A   Overcast
4:55 PM 41.4 °F 35.7 °F 19.9 °F 42% 30.17 in 10.0 mi SE 9.2 mph - N/A   Overcast
5:15 PM 41.0 °F 35.2 °F 21.7 °F 46% 30.17 in 10.0 mi SE 9.2 mph - N/A   Overcast
5:35 PM 41.0 °F 35.8 °F 23.2 °F 49% 30.17 in 10.0 mi ESE 8.1 mph - N/A   Overcast
5:55 PM 41.9 °F 35.9 °F 24.4 °F 50% 30.17 in 10.0 mi SE 10.4 mph - N/A   Overcast
6:15 PM 41.9 °F 36.3 °F 23.2 °F 47% 30.17 in 10.0 mi SE 9.2 mph - N/A   Overcast
6:35 PM 41.9 °F 35.9 °F 21.7 °F 45% 30.17 in 10.0 mi SE 10.4 mph - N/A   Overcast
6:55 PM 41.7 °F 36.7 °F 24.1 °F 50% 30.16 in 10.0 mi SE 8.1 mph - N/A   Overcast
7:15 PM 41.5 °F 35.9 °F 25.0 °F 52% 30.16 in 10.0 mi SE 9.2 mph - N/A   Overcast
7:35 PM 41.4 °F 36.2 °F 25.9 °F 54% 30.16 in 10.0 mi ESE 8.1 mph - N/A   Overcast
7:55 PM 40.6 °F 36.7 °F 26.8 °F 58% 30.17 in 10.0 mi SE 5.8 mph - N/A   Overcast
8:15 PM 40.1 °F 38.0 °F 27.1 °F 60% 30.17 in 10.0 mi SE 3.5 mph - N/A   Overcast
8:35 PM 39.2 °F 35.9 °F 28.0 °F 64% 30.16 in 10.0 mi ESE 4.6 mph - N/A   Mostly Cloudy
8:55 PM 39.2 °F - 26.1 °F 59% 30.18 in 10.0 mi Calm Calm - N/A   Mostly Cloudy
9:15 PM 38.7 °F - 26.6 °F 62% 30.19 in 10.0 mi Calm Calm - N/A   Overcast
9:35 PM 38.5 °F - 26.8 °F 63% 30.20 in 10.0 mi Calm Calm - N/A   Overcast
9:55 PM 37.8 °F - 28.6 °F 69% 30.22 in 10.0 mi Calm Calm - N/A   Overcast
10:15 PM 37.4 °F - 28.6 °F 70% 30.23 in 10.0 mi Calm Calm - N/A   Mostly Cloudy
10:35 PM 37.0 °F 34.5 °F 28.8 °F 72% 30.22 in 10.0 mi ENE 3.5 mph - N/A   Overcast
10:55 PM 37.8 °F 34.2 °F 28.4 °F 69% 30.22 in 10.0 mi East 4.6 mph - N/A   Overcast
11:15 PM 36.9 °F 33.1 °F 28.8 °F 72% 30.22 in 10.0 mi ENE 4.6 mph - N/A   Mostly Cloudy
11:35 PM 36.7 °F 31.2 °F 29.1 °F 74% 30.20 in 10.0 mi ESE 6.9 mph - N/A   Mostly Cloudy
11:55 PM 37.6 °F 35.1 °F 27.5 °F 67% 30.19 in 10.0 mi ESE 3.5 mph - N/A   Mostly Cloudy